BOTSAT-1

Satellite information

Favourite Embed

Satellite Type and Status

PAYLOADIN ORBIT

Key statistics

Satellite BOTSAT-1 at a glance.

Uptime

115

Days in orbit

Revolutions

≈ 15.2

Per day

Orbit

SSO

Sun Synchronous Orbit

Inclination

97.4

Latest

Satellite identification and parameters

Extended collection of information and parameters for BOTSAT-1.

Object identification

Identified? True

Debris? False

Object name: BOTSAT-1

International designator: 2025-052G

Object number (NORAD): 63216

Object ID (CCSDS): 63216

Country: Botswana (BWA)

Current information (Y/N): Y

RCS size: SMALL

Orbital parameters

Period: 94.768 minutes

Inclination: 97.4263 deg

SMA: 6885.485 km

Apoapsis: 508.076 km

Periapsis: 506.625 km

RAAN: 82.1 deg

Eccentricy: 0.0001053

Argument of periapsis: 235.8383 deg

Mean anomaly: 124.2752 deg

Mean motion: 15.19500728 rev/day

Mean motion (dot): 0.00005475 rev/day2

B* drag term: 0.00026105 1/REarth

Two-line elements (TLE)

Creation date: July 8, 2025, 2:27 a.m.

Reference frame: TEME

Reference center: EARTH

Epoch: July 7, 2025, 4:49 p.m. UTC

TLE line 0: 0 BOTSAT-1

TLE line 1: 1 63216U 25052G 25188.70087936 .00005475 00000-0 26105-3 0 9994

TLE line 2: 2 63216 97.4263 82.1000 0001053 235.8383 124.2752 15.19500728 17518

Live tracking on map

Real-time ground track for satellite BOTSAT-1.

In-orbit conjunctions

There are no conjunctions computed for BOTSAT-1, at the moment. Check back to stay up to date, as we update our databases every day.

Go to all conjunctions

Associated space launch

Dedicated rideshare flight to a sun-synchronous orbit with dozens of small microsatellites and nanosatellites for commercial and government customers.

BOTSAT-1 was lifted into orbit during the mission ‘Falcon 9 Block 5 | Transporter 13 (Dedicated SSO Rideshare)’, on board a Falcon 9 space rocket.

The launch took place on March 15, 2025, 6:43 a.m. from Space Launch Complex 4E.

For more information about the launch, click the button.

Launch to space Falcon 9 Block 5 | Transporter 13 (Dedicated SSO Rideshare)
Falcon 9 Block 5 | Transporter 13 (Dedicated SSO Rideshare)

Agency: SpaceX

Status: Launch Successful

Launch date: March 15, 2025, 6:43 a.m. UTC

Rocket: Falcon 9

Launch pad: Space Launch Complex 4E

Location: Vandenberg SFB, CA, USA

...

Latest news about this satellite

News about space launch
Varda Space reentry capsule lands in Australia, completes hypersonic research mission

W-3 focused on gathering data for military hypersonic research. The post Varda Space reentry capsule lands in Australia, completes hypersonic research mission appeared first on SpaceNews.

News about space launch
Intelligence and dual-use commercial satellites launch on Transporter-13

Among the 74 payloads on SpaceX’s Transporter-13 mission was a technology demonstrator from the National Reconnaissance Office The post Intelligence and dual-use commercial satellites launch on Transporter-13 appeared first on SpaceNews.

News about space launch
NASA’s EZIE Launches on Mission to Study Earth’s Electrojets

Under the nighttime California sky, NASA’s EZIE (Electrojet Zeeman Imaging Explorer) mission launched aboard a SpaceX Falcon 9 rocket at 11:43 p.m. PDT on March 14. Taking off from Vandenberg Space Force Base near Santa Barbara, the EZIE mission’s trio of...


Newsletter sign-up

Weekly statistics, charts and insights to help you stay on top of the space industry.